This demonstration page uses our WeatherBlox Daily Observations layout. Learn more.

Left ArrowRight Arrow

Hourly Observations for July 14, 2020

Temp ( °F °C ) Dew Point ( °F °C ) Humidity (%) Winds ( mph kmh ) Pressure ( in mb ) Visibility ( mi km ) Precip ( " mm )
12:54 am 00:54 Clear 74 23.3 65 18.3 74 74 S 9 15 29.83 1010 10 16.0934 0 0
1:54 am 01:54 Clear 72 22.2 65 18.3 79 79 S 7 11 29.84 1011 10 16.0934 0 0
2:54 am 02:54 Clear 73 22.8 65 18.3 76 76 S 10 17 29.84 1010 10 16.0934 0 0
3:54 am 03:54 Clear 74 23.3 66 18.9 76 76 S 13 20 29.79 1009 10 16.0934 0 0
4:54 am 04:54 Mostly Clear with Light Rain 74 23.3 66 18.9 76 76 SSE 9 15 29.71 1006 10 16.0934 0.001 0.001
5:54 am 05:54 Clear 75 23.9 66 18.9 74 74 SSW 5 7 29.76 1008 10 16.0934 0.001 0.001
6:54 am 06:54 Sunny 74 23.3 66 18.9 76 76 N 6 9 29.78 1009 10 16.0934 0 0
7:54 am 07:54 Sunny 74 23.3 67 19.4 79 79 Calm 29.8 1009 10 16.0934 0 0
8:54 am 08:54 Sunny 77 25 68 20 74 74 N 5 7 29.84 1011 9 14.48406 0 0
9:54 am 09:54 Sunny 79 26.1 68 20 69 69 SW 3 6 29.82 1010 10 16.0934 0 0
10:54 am 10:54 Sunny 83 28.3 68 20 61 61 SSW 3 6 29.83 1010 10 16.0934 0 0
11:54 am 11:54 Sunny 86 30 68 20 55 55 N 5 7 29.83 1010 10 16.0934 0 0
12:54 pm 12:54 Sunny 88 31.1 69 20.6 54 54 NNW 12 19 29.85 1011 10 16.0934 0 0
1:54 pm 13:54 Sunny 88 31.1 70 21.1 55 55 NNE 10 17 29.85 1011 10 16.0934 0 0
2:54 pm 14:54 Mostly Sunny 89 31.7 70 21.1 53 53 NNE 7 11 29.85 1011 10 16.0934 0 0
3:54 pm 15:54 Sunny 89 31.7 69 20.6 52 52 NNE 8 13 29.85 1011 10 16.0934 0 0
4:54 pm 16:54 Mostly Sunny 88 31.1 70 21.1 55 55 N 13 20 29.86 1011 10 16.0934 0 0
5:54 pm 17:54 Sunny 81 27.2 70 21.1 69 69 N 15 24 29.87 1011 9 14.48406 0 0
6:54 pm 18:54 Sunny 78 25.6 67 19.4 69 69 N 17 28 29.89 1012 10 16.0934 0 0
7:54 pm 19:54 Sunny 76 24.4 64 17.8 67 67 NNE 8 13 29.9 1013 10 16.0934 0 0
8:54 pm 20:54 Sunny 74 23.3 63 17.2 69 69 NE 10 17 29.89 1012 10 16.0934 0 0
9:28 pm 21:28 Mostly Cloudy 73 22.8 63 17.2 71 71 N 12 19 29.9 1012 10 16.0934 0 0
9:38 pm 21:38 Partly Cloudy 73 22.8 63 17.2 71 71 N 14 22 29.9 1012 10 16.0934 0 0
9:54 pm 21:54 Clear 73 22.8 63 17.2 71 71 N 16 26 29.91 1013 10 16.0934 0 0
10:54 pm 22:54 Clear 72 22.2 62 16.7 71 71 N 12 19 29.95 1014 10 16.0934 0 0
11:54 pm 23:54 Cloudy 71 21.7 60 15.6 68 68 NNE 15 24 29.96 1015 10 16.0934 0 0

Powered by AerisWeather